Regional Weather Roundup
Issued by NWS Northern Indiana

Home | Current Version | Previous Version | Graphics & Text | Print | Product List | Glossary On
Versions: 1 2 3 4 5 6 7 8 9 10 11 12 13 14 15 16 17 18 19 20 21 22 23 24 25 26 27 28 29 30 31 32 33 34 35 36 37 38 39 40 41 42 43 44 45 46 47 48 49 50
000
ASUS43 KIWX 240010
RWRIWX

KIWX WEATHER ROUNDUP
NATIONAL WEATHER SERVICE NORTHERN INDIANA
700 PM EST TUE JAN 23 2018

NOTE: "FAIR" INDICATES FEW OR NO CLOUDS BELOW 12,000 FEET WITH NO
SIGNIFICANT WEATHER AND/OR OBSTRUCTIONS TO VISIBILITY.

* THESE STATIONS ARE NOT UNDER NWS QUALITY CONTROL. THEY ALSO MAY NOT
  REPORT WEATHER SUCH AS PRECIPITATION OR FOG.

INZ001>027-240100-
NORTHERN INDIANA

CITY           SKY/WX    TMP DP  RH WIND       PRES   REMARKS
GARY*          CLOUDY    32  25  74 NW9       30.07R WCI  24
VALPARAISO     CLOUDY    31  25  78 NW12G20   30.05R WCI  22
6HR MIN TEMP:  30; 6HR MAX TEMP:  33; 6HR PCP: TRACE;

MICHIGAN CITY* CLOUDY    30  27  86 NW10G16   30.05R WCI  21
LAPORTE*       CLOUDY    29  26  88 NW12G21   30.04R FOG     WCI  19
6HR MIN TEMP:  29; 6HR MAX TEMP:  31;

KNOX*          CLOUDY    30  27  86 NW9       30.03R WCI  22
SOUTH BEND     CLOUDY    29  25  85 NW14      30.01R WCI  18
6HR MIN TEMP:  29; 6HR MAX TEMP:  31; 6HR PCP: TRACE;

ELKHART*       CLOUDY    30  27  86 NW12G17   30.00R WCI  21
GOSHEN         MIX PCPN  30  26  85 W17       29.99R WCI  18
6HR MIN TEMP:  30; 6HR MAX TEMP:  33; 6HR PCP: TRACE;

MONTICELLO*    CLOUDY    30  25  81 NW15      30.05R WCI  19
6HR MIN TEMP:  30; 6HR MAX TEMP:  34;

LOGANSPORT*    CLOUDY    30  27  86 NW8G16    30.05R WCI  23
ROCHESTER*     MOCLDY    32  28  86 NW13      30.02R WCI  22
WARSAW*        CLOUDY    30  27  86 W17       30.00R WCI  18
AUBURN*        MIX PCPN N/A N/A N/A W14G22    29.97R
FORT WAYNE     FLURRIES  32  27  81 W14       29.98R WCI  22
6HR MIN TEMP:  32; 6HR MAX TEMP:  37; 6HR PCP: TRACE;

HUNTINGTON*    CLOUDY    31  27  85 NW9G16    29.99R WCI  22
6HR MIN TEMP:  31; 6HR MAX TEMP:  34;

PERU/GRISSOM   FLURRIES  31  30  99 NW15      30.02R WCI  20
MARION*        CLOUDY    31  28  89 W17G23    30.01R WCI  20
6HR MIN TEMP: -17; 6HR MAX TEMP:  56;


$$
INZ028>050-240100-
CENTRAL INDIANA

CITY           SKY/WX    TMP DP  RH WIND       PRES   REMARKS
LAFAYETTE      CLOUDY    31  25  78 NW14G22   30.07R WCI  21
6HR MIN TEMP:  31; 6HR MAX TEMP:  35; 6HR PCP:  0.02;

MUNCIE*        CLOUDY    34  28  79 W14G24    30.00R WCI  25
6HR MIN TEMP:  34; 6HR MAX TEMP:  38; 6HR PCP: TRACE;

INDIANAPOLIS   FLURRIES  32  30  92 W17       30.05R WCI  21
6HR MIN TEMP:  32; 6HR MAX TEMP:  37; 6HR PCP:  0.01;


$$
MIZ043>046-050>051-056>058-064>065-071>073-077>080-240100-
SOUTHWEST LOWER MICHIGAN

CITY           SKY/WX    TMP DP  RH WIND       PRES   REMARKS
BATTLE CREEK   CLOUDY    30  24  78 NW17G26   29.92R WCI  18
6HR MIN TEMP:  30; 6HR MAX TEMP:  32; 6HR PCP: TRACE;

BENTON HARBOR  CLOUDY    32  25  75 NW13G22   30.01R WCI  22
6HR MIN TEMP:  31; 6HR MAX TEMP:  32; 6HR PCP:  0.01;

COLDWATER*     CLOUDY    30  28  90 W20       29.92R WCI  18
6HR MIN TEMP:  30; 6HR MAX TEMP:  33;

HILLSDALE*     CLOUDY    30  27  86 W15G25    29.88R WCI  19
HOLLAND        CLOUDY    32  23  69 NW12G20   29.97R WCI  23
6HR MIN TEMP:  30; 6HR MAX TEMP:  32; 6HR PCP:  0.01;

GRAND RAPIDS   CLOUDY    29  21  72 NW13G24   29.94R WCI  19
6HR MIN TEMP:  29; 6HR MAX TEMP:  31; 6HR PCP: TRACE;

KALAMAZOO      CLOUDY    31  25  78 NW18G24   29.94R WCI  19
6HR MIN TEMP:  30; 6HR MAX TEMP:  33; 6HR PCP: TRACE;

STURGIS*       CLOUDY    32  27  80 W10G21    29.95R WCI  24
THREE RIVERS*  CLOUDY    32  26  81 W15G23    29.95R WCI  21
6HR MIN TEMP:  31; 6HR MAX TEMP:  34;


$$
OHZ001>008-015>018-024>025-240100-
NORTHWEST OHIO

CITY           SKY/WX    TMP DP  RH WIND       PRES   REMARKS
WAUSEON*       CLOUDY    32  30  93 W24G32    29.91R WCI  19
DEFIANCE       CLOUDY    32  24  72 W12G21    29.95R WCI  23
6HR MIN TEMP:  32; 6HR MAX TEMP:  36;

FINDLAY        CLOUDY    33  27  78 W22G31    29.92R WCI  21
6HR MIN TEMP:  33; 6HR MAX TEMP:  38; 6HR PCP: TRACE;

TOLEDO EXPRESS CLOUDY    33  27  78 W22G30    29.90R WCI  21
6HR MIN TEMP:  33; 6HR MAX TEMP:  38; 6HR PCP: TRACE;

TOLEDO METCALF CLOUDY    34  26  72 W26G33    29.90R WCI  21
6HR MIN TEMP:  34; 6HR MAX TEMP:  39; 6HR PCP: TRACE;

LIMA           CLOUDY    32  30  92 W18G26    29.94R WCI  20
6HR MIN TEMP:  32; 6HR MAX TEMP:  36; 6HR PCP:  0.01;


$$
AND FOR LAKE MICHIGAN COASTAL AND OPEN LAKE BUOY OBSERVATIONS

STATION/POSITION TEMP    WIND        PRES    VSBY  WAVE
                 AIR SEA DIR/SP/G                  HT/PER
                 (F)     (DEG/KT/KT) (MB)    (MI)  (FT/S)
CALUMET HARBOR    30     300/ 10/ 16 1017.5R
MICHIGAN CITY     30     290/ 19/ 21   N/A
BURNS HARBOR      30     320/ 15/ 20 1018.3R
SAINT JOSEPH      32     320/ 17/ 20 1016.9

$$
&&




USA.gov is the U.S. government's official web portal to all federal, state and local government web resources and services.